Overview Statistics Trail Chart Weather Telemetry Raw packets
 

This is the latest recevied weather packets stored in our database for station/object KB1WCR. If no packets are shown the sender has not sent any weather packets the latest 10 day(s).

<< 56 57 58 59 60 61 62 >>
Time Temp. Humidity Pressure Rain* Wind** Luminosity Snow
1788015854 22.78° C 52% 1022.6 hPa 0 mm - 654 W/m² -
1788015549 22.22° C 52% 1022.5 hPa 0 mm - 647 W/m² -
1788015244 22.78° C 54% 1022.6 hPa 0 mm - 638 W/m² -
1788014943 21.67° C 58% 1022.5 hPa 0 mm - 631 W/m² -
1788014638 21.11° C 58% 1022.5 hPa 0 mm - 624 W/m² -
1788014333 21.67° C 57% 1022.7 hPa 0 mm - 616 W/m² -
1788014028 21.67° C 57% 1022.6 hPa 0 mm - 606 W/m² -
1788013728 21.67° C 60% 1022.7 hPa 0 mm - 597 W/m² -
1788013427 21.11° C 60% 1022.5 hPa 0 mm - 586 W/m² -
1788013127 21.11° C 61% 1022.7 hPa 0 mm - 576 W/m² -
1788012826 21.67° C 60% 1022.5 hPa 0 mm - 565 W/m² -
1788012521 21.11° C 60% 1022.5 hPa 0 mm - 555 W/m² -
1788012221 21.11° C 59% 1022.5 hPa 0 mm - 544 W/m² -
1788011922 20.56° C 61% 1022.6 hPa 0 mm - 532 W/m² -
1788011618 21.11° C 63% 1022.7 hPa 0 mm - 524 W/m² -
1788011315 20.56° C 63% 1022.6 hPa 0 mm - 511 W/m² -
1788011013 21.11° C 64% 1022.7 hPa 0 mm - 498 W/m² -
1788010710 21.11° C 65% 1022.7 hPa 0 mm - 485 W/m² -
1788010407 20.56° C 63% 1022.5 hPa 0 mm - 472 W/m² -
1788010102 20.56° C 65% 1022.6 hPa 0 mm - 459 W/m² -
1788009797 20.56° C 65% 1022.4 hPa 0 mm - 445 W/m² -
1788009496 20.56° C 65% 1022.6 hPa 0 mm - 433 W/m² -
1788009191 20.56° C 65% 1022.6 hPa 0 mm - 418 W/m² -
1788008886 21.11° C 67% 1022.5 hPa 0 mm - 402 W/m² -
1788008581 20.56° C 67% 1022.3 hPa 0 mm - 390 W/m² -

* Rain latest hour (hover to see other rain measurements)
** Current wind speed in m/s (hover to see current wind gust speed)